Location: Recife
(8.0585°S, 34.8848°W)
Time: 20:02:39
(UTC-03:00)

A-11 Canister half - Pass Details

Date: 23 April 2026
Orbit: 1523 x 1684 km, 47.3° (Epoch: 16 May)

Event Time Altitude Azimuth Distance (km) Brightness Sun altitude
Rises 09:34:21 0° 284° (WNW) 4,811 11.4 57.0°
Reaches altitude 10° 09:38:31 10° 269° (W) 3,800 10.9 57.8°
Maximum altitude 09:45:21 22° 223° (SW) 2,946 10.4 59.1°
Drops below altitude 10° 09:52:08 10° 176° (S) 3,726 11.0 60.3°
Sets 09:56:13 0° 160° (SSE) 4,693 11.4 61.0°
